Location: Kam�li
(14.6864°N, 3.1482°W)
Time: 23:30:54
(UTC+00:00)

ASC 2 Rocket - Pass Details

Date: 29 October 2020
Orbit: 555 x 2345 km, 24.0° (Epoch: 03 December)

Event Time Altitude Azimuth Distance (km) Brightness Sun altitude
Rises 18:56:54 0° 297° (WNW) 2,736 7.3 -17.8°
Reaches altitude 10° 18:59:03 10° 304° (NW) 1,899 6.2 -18.3°
Maximum altitude 19:03:07 43° 17° (NNE) 945 3.7 -19.3°
Enters shadow 19:04:15 37° 52° (NE) 1,094 3.8 -19.6°
